"America/Chicago Time","Lifetime Energy (kWh)","Power (W)","AC Volts RMS (V) ","AC Amps RMS (mA)","Grid Frequency (Hz)","Inverter Temperature (C)"
"03/12/12 08:49:14","32.0419","12.4","212.31","11","60.07","7"
"03/12/12 08:54:15","32.0422","0.0","212.55","0","60.03","7"
"03/12/12 08:59:14","32.0428","13.0","212.92","0","60.0","7"
"03/12/12 09:04:14","32.0436","3.4","213.37","221","60.03","8"
"03/12/12 09:09:15","32.0443","14.1","213.38","1","60.0","8"
"03/12/12 09:14:14","32.0451","16.0","213.53","112","60.03","8"
"03/12/12 09:19:14","32.0459","11.6","212.61","7","60.0","9"
"03/12/12 09:24:13","32.0464","0.0","212.52","0","60.03","9"
"03/12/12 09:29:14","32.0469","14.1","212.78","102","60.0","9"
"03/12/12 09:34:15","32.0476","12.6","213.37","103","60.0","9"
"03/12/12 09:39:15","32.0489","15.5","212.96","8","60.03","9"
"03/12/12 09:49:15","32.0512","10.9","212.89","125","60.0","9"
"03/12/12 09:54:15","32.0527","28.6","213.21","59","60.03","9"
"03/12/12 09:59:13","32.0544","26.5","213.25","267","60.03","9"
"03/12/12 10:04:14","32.057","16.2","213.23","103","60.0","10"
"03/12/12 10:09:13","32.0583","28.8","212.69","267","60.03","10"
"03/12/12 10:14:14","32.0598","28.1","212.52","65","60.03","10"
"03/12/12 10:19:14","32.0613","13.7","213.1","235","60.03","10"
"03/12/12 10:24:15","32.0632","26.8","213.89","84","60.03","11"
"03/12/12 10:29:14","32.0657","32.6","214.42","269","60.03","11"
"03/12/12 10:34:14","32.0686","40.1","214.01","103","60.0","11"
"03/12/12 10:39:15","32.0715","32.1","213.83","17","60.03","11"
"03/12/12 10:44:15","32.0737","27.9","213.89","46","60.03","11"
"03/12/12 10:49:15","32.0758","32.4","213.82","252","60.0","11"
"03/12/12 10:54:15","32.078","32.5","213.25","189","60.03","12"
"03/12/12 10:59:15","32.0797","30.6","213.91","181","60.03","12"
"03/12/12 11:04:14","32.0809","25.6","213.94","168","60.0","12"
"03/12/12 11:09:14","32.0824","16.8","213.91","29","60.0","12"
"03/12/12 11:14:14","32.0838","15.3","214.44","163","60.0","12"
"03/12/12 11:19:14","32.085","8.5","214.23","154","60.0","11"
"03/12/12 11:24:14","32.0861","18.2","213.43","100","60.03","11"
"03/12/12 11:29:15","32.0883","34.6","213.83","116","60.0","11"
"03/12/12 11:34:15","32.0901","12.2","213.34","22","60.03","11"
"03/12/12 11:39:15","32.0918","30.4","213.39","250","60.03","11"
"03/12/12 11:44:13","32.0943","37.3","214.27","298","60.03","11"
"03/12/12 11:49:14","32.0971","27.2","213.63","253","60.03","11"
"03/12/12 11:54:14","32.0989","34.4","213.75","94","60.03","11"
"03/12/12 11:59:15","32.1006","17.5","214.1","257","60.0","11"
"03/12/12 12:04:14","32.1026","25.7","213.59","73","60.03","11"
"03/12/12 12:09:14","32.1056","39.5","213.78","138","60.0","12"
"03/12/12 12:14:14","32.1091","47.2","215.05","309","60.0","13"
"03/12/12 12:19:15","32.1131","44.2","214.86","215","60.0","13"
"03/12/12 12:24:14","32.1165","39.5","214.46","107","60.03","13"
"03/12/12 12:29:14","32.1197","51.1","213.87","390","60.03","14"
"03/12/12 12:34:14","32.1223","34.4","214.07","271","60.03","14"
"03/12/12 12:39:14","32.1248","28.4","213.94","83","60.03","15"
"03/12/12 12:44:15","32.1271","25.0","213.77","303","60.03","15"
"03/12/12 12:49:13","32.129","32.7","213.73","184","60.03","15"
"03/12/12 12:54:15","32.1319","38.4","214.06","235","60.03","15"
"03/12/12 12:59:15","32.1346","29.9","213.98","94","60.03","15"
"03/12/12 13:04:15","32.1367","17.1","213.8","150","60.0","15"
"03/12/12 13:09:15","32.1384","13.2","213.67","9","60.03","14"
"03/12/12 13:14:14","32.14","26.4","213.57","319","60.03","14"
"03/12/12 13:19:15","32.1426","32.4","213.71","107","60.07","14"
"03/12/12 13:24:15","32.1458","55.1","214.15","246","60.03","15"
"03/12/12 13:29:14","32.1493","42.0","214.0","193","60.0","15"
"03/12/12 13:34:15","32.1531","47.8","213.8","393","60.03","16"
"03/12/12 13:39:15","32.1571","36.8","214.24","115","60.03","17"
"03/12/12 13:44:14","32.1602","38.4","214.11","160","60.0","17"
"03/12/12 13:49:15","32.1629","50.3","215.3","230","60.0","18"
"03/12/12 13:54:15","32.1655","39.1","214.65","137","60.07","18"
"03/12/12 13:59:15","32.1689","56.3","215.27","105","60.0","18"
"03/12/12 14:04:14","32.172","27.4","214.52","208","60.07","18"
"03/12/12 14:09:14","32.1746","53.7","214.69","379","60.03","18"
"03/12/12 14:14:14","32.1801","119.7","216.43","561","60.0","18"
"03/12/12 14:19:15","32.1913","144.9","216.79","671","60.03","20"
"03/12/12 14:24:15","32.1988","82.7","215.38","408","60.03","20"
"03/12/12 14:29:15","32.2043","61.9","215.4","318","60.03","20"
"03/12/12 14:34:14","32.2084","45.4","214.4","307","60.03","20"
"03/12/12 14:39:15","32.2115","41.0","213.83","135","60.0","20"
"03/12/12 14:44:14","32.2151","42.2","213.96","165","60.03","19"
"03/12/12 14:49:15","32.2194","74.1","213.96","181","60.03","19"
"03/12/12 14:54:15","32.2245","72.5","215.36","359","60.03","19"
"03/12/12 14:59:15","32.2306","83.2","215.86","408","60.03","20"
"03/12/12 15:04:14","32.2391","89.2","215.7","428","60.03","21"
"03/12/12 15:09:15","32.246","112.1","216.54","527","60.03","21"
"03/12/12 15:14:14","32.2548","111.4","216.6","529","60.07","22"
"03/12/12 15:19:14","32.2635","117.6","216.08","556","60.0","23"
"03/12/12 15:24:14","32.2737","147.1","216.64","683","60.03","24"
"03/12/12 15:29:14","32.2852","180.1","217.64","820","60.03","25"
"03/12/12 15:34:14","32.2973","163.9","218.02","748","60.03","26"
"03/12/12 15:39:15","32.3087","134.6","217.34","626","60.03","26"
"03/12/12 15:44:15","32.3188","120.7","216.62","568","60.03","26"
"03/12/12 15:49:14","32.3284","125.5","216.31","590","60.03","27"
"03/12/12 15:54:14","32.3371","104.5","216.44","498","60.0","26"
"03/12/12 15:59:15","32.3432","29.0","214.61","27","60.03","25"
"03/12/12 16:04:15","32.3485","89.6","216.57","433","60.03","25"
"03/12/12 16:09:14","32.352","27.5","214.19","135","60.0","24"
"03/12/12 16:14:14","32.3537","14.5","213.81","6","60.0","23"
"03/12/12 16:19:14","32.3548","23.7","213.76","124","60.0","22"
"03/12/12 16:24:14","32.3559","10.7","214.01","91","60.03","21"
"03/12/12 16:29:14","32.3573","10.5","214.68","6","60.0","20"
"03/12/12 16:34:15","32.3588","33.7","214.55","164","60.03","20"
"03/12/12 16:39:15","32.3616","41.4","215.55","243","60.0","20"
"03/12/12 16:44:15","32.3652","27.0","215.19","143","60.03","20"
"03/12/12 16:49:14","32.3672","16.4","214.48","17","60.03","20"
"03/12/12 16:54:15","32.3686","14.5","214.99","7","60.03","20"
"03/12/12 16:59:14","32.3701","10.9","214.6","64","60.03","20"
"03/12/12 17:04:14","32.3726","65.1","214.92","335","60.07","19"
"03/12/12 17:09:15","32.3756","13.9","213.32","29","60.03","20"
"03/12/12 17:14:15","32.3762","14.7","213.32","1","60.0","19"
"03/12/12 17:19:15","32.3766","0.0","212.97","0","59.96","19"
"03/12/12 17:24:16","32.3768","0.0","212.9","0","60.03","18"
"03/12/12 17:34:14","32.3769","6.4","213.24","0","60.03","17"
"03/12/12 17:39:17","32.3772","0.0","213.62","0","60.03","17"
"03/12/12 17:44:17","32.3776","12.2","213.45","1","60.03","17"
"03/13/12 08:14:14","32.3781","6.3","213.3","262","60.03","6"
"03/13/12 08:19:15","32.3796","10.8","214.06","15","60.03","6"
"03/13/12 08:24:15","32.3814","44.3","214.3","298","60.03","6"
"03/13/12 08:29:15","32.387","86.9","216.25","423","60.0","7"
"03/13/12 08:34:15","32.3931","88.4","216.37","425","60.0","8"
"03/13/12 08:39:14","32.4005","74.7","215.33","371","60.0","9"
"03/13/12 08:44:15","32.4076","69.4","215.49","348","60.03","9"
"03/13/12 08:49:14","32.4147","68.3","214.66","343","60.03","9"
"03/13/12 08:54:15","32.4212","49.1","214.52","234","60.03","10"
"03/13/12 08:59:14","32.4265","96.7","216.59","464","60.03","10"
"03/13/12 09:04:16","32.4319","47.4","214.98","355","60.0","10"
"03/13/12 09:09:15","32.4392","58.1","215.08","221","60.03","10"
"03/13/12 09:14:15","32.4501","142.7","217.3","662","60.03","11"
"03/13/12 09:19:15","32.4608","135.6","216.36","631","60.03","11"
"03/13/12 09:24:15","32.4715","142.6","216.37","662","60.03","12"
"03/13/12 09:29:16","32.4827","144.0","217.05","669","60.03","12"
"03/13/12 09:34:14","32.494","149.1","217.74","684","60.0","13"
"03/13/12 09:39:16","32.5059","154.0","218.19","707","60.03","13"
"03/13/12 09:44:14","32.518","158.7","218.2","720","60.03","13"
"03/13/12 09:49:16","32.5306","163.3","218.26","744","60.03","13"
"03/13/12 09:54:14","32.5433","167.7","218.5","762","60.03","13"
"03/13/12 09:59:15","32.5566","171.8","218.14","777","60.0","13"
"03/13/12 10:04:14","32.5701","176.1","217.69","797","60.0","13"
"03/13/12 10:09:16","32.5841","179.9","217.17","818","60.03","13"
"03/13/12 10:14:15","32.5981","183.1","218.21","831","60.0","14"
"03/13/12 10:19:15","32.6126","187.5","218.09","848","60.0","14"
"03/13/12 10:24:15","32.6273","190.2","218.45","853","60.03","15"
"03/13/12 10:29:16","32.6423","193.9","219.23","872","60.03","15"
"03/13/12 10:34:15","32.6575","196.8","218.87","883","60.0","15"
"03/13/12 10:39:16","32.6729","196.6","218.64","883","60.0","15"
"03/13/12 10:44:19","32.6883","196.5","218.84","884","60.03","16"
"03/13/12 10:49:15","32.7033","196.3","218.43","886","60.0","16"
"03/13/12 10:54:15","32.7186","196.1","219.07","882","60.03","16"
"03/13/12 10:59:16","32.734","195.9","219.2","881","60.0","17"
"03/13/12 11:04:16","32.7493","195.9","219.39","873","60.0","17"
"03/13/12 11:09:15","32.7645","196.3","218.89","880","60.03","17"
"03/13/12 11:14:15","32.7798","195.7","219.64","877","60.0","17"
"03/13/12 11:19:14","32.7951","196.0","219.48","878","60.03","17"
"03/13/12 11:24:15","32.8104","196.0","218.94","880","60.03","17"
"03/13/12 11:29:16","32.8256","196.3","218.58","888","60.03","17"
"03/13/12 11:34:14","32.8408","196.3","219.11","885","60.0","17"
"03/13/12 11:39:14","32.8561","195.8","218.99","882","60.03","18"
"03/13/12 11:44:16","32.8713","196.0","219.32","883","60.03","18"
"03/13/12 11:49:16","32.8866","195.9","219.09","882","60.03","18"
"03/13/12 11:54:15","32.9018","195.4","218.27","882","60.03","18"
"03/13/12 11:59:15","32.9171","196.1","218.57","888","60.03","18"
"03/13/12 12:04:16","32.9323","195.8","217.93","881","60.0","18"
"03/13/12 12:09:15","32.9476","196.1","218.55","880","60.0","17"
"03/13/12 12:14:16","32.9628","195.2","218.42","883","60.03","18"
"03/13/12 12:19:15","32.978","195.8","218.39","885","60.03","18"
"03/13/12 12:24:19","32.9935","195.2","219.18","884","60.03","18"
"03/13/12 12:29:15","33.0086","195.4","218.48","878","60.03","18"
"03/13/12 12:34:15","33.0237","195.7","218.27","881","60.0","18"
"03/13/12 12:39:15","33.0391","195.5","218.09","880","60.03","18"
"03/13/12 12:44:15","33.0542","195.3","219.06","877","60.0","18"
"03/13/12 12:49:15","33.0695","196.1","219.07","882","60.0","18"
"03/13/12 12:54:16","33.0848","195.9","219.57","876","60.03","18"
"03/13/12 12:59:15","33.1","195.4","218.71","882","60.03","18"
"03/13/12 13:04:14","33.1152","195.7","218.6","878","60.0","18"
"03/13/12 13:09:15","33.1306","195.7","218.48","878","60.03","18"
"03/13/12 13:14:15","33.1458","195.9","218.42","881","60.03","18"
"03/13/12 13:19:15","33.161","196.1","218.85","877","60.0","18"
"03/13/12 13:24:14","33.1762","196.1","218.93","878","60.03","18"
"03/13/12 13:29:14","33.1915","196.3","217.92","889","60.03","18"
"03/13/12 13:34:16","33.2068","196.5","218.82","887","60.0","18"
"03/13/12 13:39:15","33.222","195.9","218.85","881","60.03","18"
"03/13/12 13:44:15","33.2372","195.8","218.34","883","60.0","19"
"03/13/12 13:49:16","33.2526","196.0","218.3","880","60.03","19"
"03/13/12 13:54:15","33.2677","195.6","218.89","880","60.03","19"
"03/13/12 13:59:15","33.283","196.2","218.45","881","60.0","19"
"03/13/12 14:04:15","33.2983","195.7","218.56","883","60.03","19"
"03/13/12 14:09:15","33.3136","196.8","218.95","880","60.03","19"
"03/13/12 14:14:15","33.3289","196.9","218.98","882","60.03","19"
"03/13/12 14:19:16","33.3443","196.0","219.22","883","60.03","19"
"03/13/12 14:24:16","33.3596","196.0","218.85","884","60.0","19"
"03/13/12 14:29:16","33.3749","195.2","218.51","877","60.0","19"
"03/13/12 14:34:16","33.39","193.0","218.31","870","60.0","19"
"03/13/12 14:39:15","33.405","190.1","218.17","856","60.0","19"
"03/13/12 14:44:15","33.4197","188.0","218.65","846","60.03","18"
"03/13/12 14:49:16","33.4342","183.9","218.12","831","60.0","18"
"03/13/12 14:54:15","33.4483","180.9","218.32","819","60.03","18"
"03/13/12 14:59:16","33.4624","177.9","219.35","808","60.03","18"
"03/13/12 15:04:15","33.4761","174.1","217.65","794","60.03","18"
"03/13/12 15:09:15","33.4895","171.2","217.74","779","60.03","18"
"03/13/12 15:14:14","33.5027","167.9","217.18","766","60.03","18"
"03/13/12 15:19:15","33.5157","164.0","217.62","751","60.0","18"
"03/13/12 15:24:15","33.5283","159.9","217.64","729","60.0","17"
"03/13/12 15:29:15","33.5407","156.3","217.3","719","60.03","17"
"03/13/12 15:34:15","33.5526","152.3","216.96","703","60.03","17"
"03/13/12 15:39:16","33.5644","147.7","216.74","682","60.0","17"
"03/13/12 15:44:16","33.5757","144.4","216.69","666","60.03","17"
"03/13/12 16:02:55","33.6151","126.3","216.11","593","60.03","17"
"03/13/12 16:07:55","33.6247","121.7","216.29","574","60.03","16"
"03/13/12 16:12:54","33.634","116.8","216.01","547","60.0","17"
"03/13/12 16:17:54","33.6429","111.7","216.26","529","60.0","17"
"03/13/12 16:22:55","33.6513","106.7","216.05","507","60.0","17"
"03/13/12 16:27:55","33.6595","101.5","215.46","488","60.03","16"
"03/13/12 16:32:55","33.6672","96.4","214.92","463","60.0","16"
"03/13/12 16:37:55","33.6745","91.3","215.93","442","60.0","16"
"03/13/12 16:42:55","33.6813","85.5","214.62","418","60.03","16"
"03/13/12 16:47:54","33.6877","80.0","214.17","395","60.03","16"
"03/13/12 16:57:56","33.6994","69.0","214.84","346","60.03","16"
"03/13/12 17:02:55","33.7045","63.7","214.0","327","60.03","15"
"03/13/12 17:07:54","33.7089","48.2","213.71","88","60.03","15"
"03/13/12 17:12:55","33.7128","45.0","213.01","405","60.03","15"
"03/13/12 17:17:54","33.7167","42.1","213.78","211","60.03","15"
"03/13/12 17:22:54","33.7201","36.6","213.62","364","60.0","15"
"03/13/12 17:27:56","33.7232","42.5","214.32","165","60.03","15"
"03/13/12 17:32:55","33.7258","28.3","213.98","186","60.0","14"
"03/13/12 17:37:55","33.7281","17.9","214.03","288","60.03","14"
"03/13/12 17:42:55","33.7301","30.8","213.27","146","60.0","14"
"03/13/12 17:47:55","33.7317","20.5","213.25","18","60.03","14"
"03/13/12 17:52:54","33.7329","11.6","213.77","174","60.0","13"
"03/13/12 17:57:56","33.734","12.0","213.75","31","60.07","13"
"03/13/12 18:02:55","33.7347","2.8","213.52","192","60.03","13"
"03/13/12 18:07:54","33.7353","10.5","213.39","19","60.03","13"
"03/13/12 18:12:56","33.7356","14.0","213.12","1","60.03","13"
"03/14/12 12:26:17","34.3119","196.0","218.1","884","60.03","30"
"03/14/12 12:31:16","34.3266","189.2","216.47","859","60.03","31"
"03/14/12 12:36:16","34.3418","196.3","217.71","880","60.0","31"
"03/14/12 12:41:17","34.3567","195.6","218.58","882","60.0","32"
"03/14/12 12:46:16","34.3719","195.6","218.57","882","60.03","32"
"03/14/12 12:51:16","34.3869","117.4","217.26","552","60.0","32"
"03/14/12 12:56:17","34.394","109.0","216.74","517","60.03","31"
"03/14/12 13:01:17","34.4073","163.1","217.37","743","60.03","31"
"03/14/12 13:06:15","34.4223","195.5","218.2","879","60.0","33"
"03/14/12 13:11:16","34.4375","195.2","218.76","880","60.03","33"
"03/14/12 13:16:17","34.4519","177.5","218.54","800","60.03","34"
"03/14/12 13:21:17","34.4657","183.2","218.39","827","60.0","34"
"03/14/12 13:26:17","34.4806","187.7","218.08","846","60.03","35"
"03/14/12 13:31:17","34.4941","189.3","218.35","853","60.0","35"
"03/14/12 13:36:15","34.5045","164.3","217.18","748","60.03","35"
"03/14/12 13:41:16","34.5163","153.5","216.75","704","60.0","34"
"03/14/12 13:46:17","34.5308","195.3","218.15","879","60.0","35"
"03/14/12 13:51:17","34.5455","172.2","218.46","781","60.03","36"
"03/14/12 13:56:16","34.5594","186.3","218.58","843","60.03","36"
"03/14/12 14:01:16","34.5737","181.7","218.43","820","60.0","37"
"03/14/12 14:06:16","34.5878","178.3","218.0","809","60.0","37"
"03/14/12 14:11:17","34.6016","175.1","218.13","796","60.03","37"
"03/14/12 14:16:17","34.6152","172.6","217.61","782","60.0","38"
"03/14/12 14:21:16","34.6285","170.5","218.23","770","60.03","39"
"03/14/12 14:26:17","34.6418","169.1","218.59","769","60.07","39"
"03/14/12 14:31:16","34.6548","166.7","218.84","761","60.03","39"
"03/14/12 14:36:16","34.6679","167.6","218.87","758","60.03","38"
"03/14/12 14:41:17","34.6809","164.5","218.45","750","60.07","38"
"03/14/12 14:46:16","34.6936","162.3","218.1","742","60.0","38"
"03/14/12 14:51:16","34.7062","160.6","218.43","734","60.03","38"
"03/14/12 14:56:17","34.7187","157.8","218.26","724","60.03","38"
"03/14/12 15:01:15","34.7308","154.8","218.58","709","60.03","37"
"03/14/12 15:06:17","34.7427","149.1","218.18","685","60.0","38"
"03/14/12 15:11:17","34.7542","146.3","218.46","669","60.03","37"
"03/14/12 15:16:16","34.7654","141.9","217.59","652","60.0","37"
"03/14/12 15:21:16","34.7763","140.6","216.97","650","60.0","37"
"03/14/12 15:26:17","34.7873","135.8","216.19","635","60.03","37"
"03/14/12 15:31:17","34.7978","134.3","216.76","623","60.03","36"
"03/14/12 15:36:17","34.8078","120.3","216.62","564","60.0","36"
"03/14/12 15:41:15","34.8168","114.4","216.66","541","60.0","36"
"03/14/12 15:46:15","34.8255","108.1","215.93","515","60.03","36"
"03/14/12 15:51:17","34.8336","99.1","215.52","472","60.0","36"
"03/14/12 15:56:17","34.8416","104.4","215.75","500","60.03","37"
"03/14/12 16:01:17","34.8497","101.5","215.96","488","60.07","37"
"03/14/12 16:06:15","34.8575","102.8","216.44","491","60.03","37"
"03/14/12 16:11:16","34.8651","95.9","216.03","466","60.0","37"
"03/14/12 16:16:17","34.8725","90.7","215.82","440","60.03","37"
"03/14/12 16:21:16","34.879","83.4","215.55","407","60.03","37"
"03/14/12 16:26:17","34.8856","78.8","215.61","388","60.03","37"
"03/14/12 16:31:17","34.8917","72.9","215.01","365","60.03","37"
"03/14/12 16:36:17","34.8975","76.9","214.56","383","60.0","36"
"03/14/12 16:41:17","34.9032","73.7","215.49","368","60.03","35"
"03/14/12 16:46:17","34.9087","66.2","214.53","336","60.0","32"
"03/14/12 16:51:17","34.9136","54.4","215.33","109","60.0","31"
"03/14/12 16:56:15","34.9175","38.9","214.6","201","60.0","29"
"03/14/12 17:01:16","34.9215","47.9","215.17","414","60.07","28"
"03/14/12 17:06:16","34.9254","40.5","214.75","356","60.03","26"
"03/14/12 17:11:17","34.9291","48.3","213.85","281","60.03","25"
"03/14/12 17:16:15","34.9321","39.4","214.04","172","60.03","24"
"03/14/12 17:21:17","34.9348","36.4","213.85","204","60.0","24"
"03/14/12 17:26:17","34.9374","34.0","213.66","254","60.03","23"
"03/14/12 17:31:15","34.9394","14.1","213.67","38","60.0","23"
"03/14/12 17:36:16","34.9411","27.2","213.66","29","60.03","23"
"03/14/12 17:41:16","34.9424","6.7","213.92","47","60.03","22"
"03/14/12 17:46:16","34.9432","1.5","213.19","0","60.03","22"
"03/14/12 17:51:17","34.9438","0.0","213.21","0","60.03","20"
"03/14/12 17:56:17","34.9443","10.4","213.42","2","60.03","20"
"03/14/12 18:01:17","34.9447","0.0","212.66","0","60.07","20"
"03/14/12 18:06:17","34.9452","13.5","213.53","142","60.07","19"
"03/14/12 18:16:17","34.946","0.0","213.01","0","60.03","19"
"03/14/12 18:21:16","34.9463","13.1","213.16","0","60.0","18"
"03/15/12 07:31:16","34.9471","14.2","213.89","6","60.0","7"
"03/15/12 07:36:16","34.9478","14.3","214.39","43","60.03","8"
"03/15/12 07:41:17","34.9488","15.4","213.9","245","60.03","9"
"03/15/12 07:46:17","34.95","26.0","214.95","171","60.0","9"
"03/15/12 07:51:16","34.9515","18.1","213.93","131","60.03","9"
"03/15/12 07:56:17","34.9532","23.5","213.2","187","60.0","9"
"03/15/12 08:01:16","34.9552","32.8","215.32","228","60.0","10"
"03/15/12 08:06:16","34.9578","37.2","215.23","170","60.03","10"
"03/15/12 08:11:17","34.961","38.4","215.48","260","60.0","11"
"03/15/12 08:16:18","34.9646","49.5","215.83","200","60.03","11"
"03/15/12 08:21:18","34.9684","56.1","215.69","114","60.0","11"
"03/15/12 08:26:16","34.9722","48.7","215.63","338","60.03","12"
"03/15/12 08:31:16","34.976","43.2","216.2","111","60.03","12"
"03/15/12 08:36:17","34.9796","48.6","215.67","179","60.0","13"
"03/15/12 08:41:16","34.983","36.3","214.07","309","60.03","13"
"03/15/12 08:46:16","34.9867","43.3","216.32","344","60.03","13"
"03/15/12 08:51:16","34.9919","73.1","215.69","364","60.03","13"
"03/15/12 08:56:16","34.9975","73.3","216.72","362","60.03","14"
"03/15/12 09:01:17","35.0033","74.2","216.18","367","60.0","14"
"03/15/12 09:06:17","35.0093","82.6","216.1","401","60.03","14"
"03/15/12 09:11:16","35.0155","73.4","216.14","364","60.03","15"
"03/15/12 09:16:17","35.0206","63.8","216.36","324","60.03","15"
"03/15/12 09:21:17","35.0255","66.6","216.23","195","60.0","15"
"03/15/12 09:26:18","35.0301","74.9","217.09","370","60.03","15"
"03/15/12 09:31:16","35.0361","76.5","216.58","376","60.0","15"
"03/15/12 09:36:16","35.0423","80.5","216.81","393","60.0","15"
"03/15/12 09:41:17","35.0488","81.9","217.22","398","60.03","15"
"03/15/12 09:46:17","35.0558","92.5","217.49","447","60.0","16"
"03/15/12 09:51:16","35.0631","104.0","217.63","492","60.0","17"
"03/15/12 09:56:17","35.0714","111.1","217.73","523","60.0","17"
"03/15/12 10:01:16","35.0803","116.5","218.59","543","60.03","18"
"03/15/12 10:06:16","35.0885","94.3","217.96","449","60.03","18"
"03/15/12 10:11:17","35.0952","82.5","217.22","403","60.03","18"
"03/15/12 10:16:17","35.1012","71.2","217.1","357","60.03","18"
"03/15/12 10:21:17","35.1076","89.6","217.2","435","60.03","18"
"03/15/12 10:26:17","35.1149","89.5","217.06","430","60.03","18"
"03/15/12 10:31:16","35.1217","81.6","215.65","403","60.03","18"
"03/15/12 10:36:17","35.1277","73.6","214.88","363","60.03","18"
"03/15/12 10:41:18","35.1341","91.8","216.03","445","60.03","18"
"03/15/12 10:46:16","35.1411","98.5","216.8","471","60.0","18"
"03/15/12 10:51:16","35.1493","122.1","216.86","571","60.03","18"
"03/15/12 10:56:16","35.1596","133.2","216.23","624","60.03","19"
"03/15/12 11:01:17","35.1703","143.0","217.03","660","60.0","20"
"03/15/12 11:06:17","35.1822","153.4","217.24","709","60.03","21"
"03/15/12 11:11:16","35.1943","151.9","216.92","703","60.03","22"
"03/15/12 11:16:17","35.207","174.8","218.14","795","60.03","23"
"03/15/12 11:21:17","35.2206","171.1","218.75","770","60.0","24"
"03/15/12 11:26:16","35.2339","177.5","218.41","802","60.03","26"
"03/15/12 11:31:17","35.2476","173.5","218.66","787","60.0","26"
"03/15/12 11:36:17","35.2605","155.9","216.82","715","60.03","27"
"03/15/12 11:41:18","35.2723","155.0","217.38","709","60.03","27"
"03/15/12 11:46:16","35.284","154.3","217.03","707","60.0","26"
"03/15/12 11:51:17","35.296","147.3","217.04","680","60.0","27"
"03/15/12 11:56:16","35.3077","181.5","217.35","826","60.07","27"
"03/15/12 12:01:16","35.3221","189.9","218.09","856","60.03","28"
"03/15/12 12:06:18","35.3367","185.8","217.84","842","60.03","29"
"03/15/12 12:11:17","35.3511","183.4","217.65","831","60.0","30"
"03/15/12 12:16:18","35.3653","184.3","217.2","832","60.03","31"
"03/15/12 12:21:16","35.3788","164.0","217.0","754","60.03","32"
"03/15/12 12:26:16","35.3917","177.6","217.37","812","60.03","33"
"03/15/12 12:31:17","35.4056","172.5","218.21","783","60.03","33"
"03/15/12 12:36:17","35.4197","182.8","217.95","826","60.03","35"
"03/15/12 12:41:18","35.4344","190.3","217.91","861","60.0","36"
"03/15/12 12:46:16","35.4488","184.3","217.55","834","60.0","36"
"03/15/12 12:51:17","35.4631","177.9","217.65","806","60.03","38"
"03/15/12 12:56:17","35.4773","182.9","218.33","825","60.03","38"
"03/15/12 13:01:18","35.4915","166.2","218.13","758","60.03","38"
"03/15/12 13:06:16","35.5053","178.0","217.85","804","60.03","39"
"03/15/12 13:11:17","35.5198","160.4","217.98","735","60.03","40"
"03/15/12 13:16:18","35.5332","162.5","218.13","738","60.0","40"
"03/15/12 13:21:17","35.5434","103.4","215.99","497","60.03","38"
"03/15/12 13:26:17","35.5524","136.4","216.03","635","60.03","37"
"03/15/12 13:31:17","35.5647","165.1","216.94","754","60.0","37"
"03/15/12 13:36:18","35.5767","195.8","217.76","887","60.03","36"
"03/15/12 13:41:18","35.591","185.0","217.64","841","60.0","36"